This demonstration page uses our WeatherBlox Daily Observations layout. Learn more.

Left ArrowRight Arrow

38.88101, -77.10428

Hourly Observations for December 11, 2015

Temp ( °F °C ) Dew Point ( °F °C ) Humidity (%) Winds ( mph kmh ) Pressure ( in mb ) Visibility ( mi km ) Precip ( " mm )
12:52 am 00:52 Mostly Cloudy 49 9.4 43 6.1 80 80 SSW 3 6 29.91 1013 10 16 N/A
1:52 am 01:52 Mostly Cloudy 48 8.9 43 6.1 83 83 N N/A 29.90 1013 10 16 N/A
2:52 am 02:52 Mostly Clear 46 7.8 43 6.1 89 89 S 3 6 29.91 1013 10 16 N/A
3:52 am 03:52 Clear 46 7.8 43 6.1 89 89 N N/A 29.90 1012 9 14 N/A
4:52 am 04:52 Clear 46 7.8 43 6.1 89 89 N N/A 29.90 1013 10 16 N/A
5:52 am 05:52 Clear 45 7.2 42 5.6 90 90 N N/A 29.91 1013 10 16 N/A
6:52 am 06:52 Mostly Clear 43 6.1 42 5.6 97 97 N N/A 29.94 1014 9 14 N/A
7:52 am 07:52 Partly Cloudy 46 7.8 44 6.7 93 93 SW 6 9 29.94 1014 7 11 N/A
8:52 am 08:52 Mostly Cloudy 48 8.9 46 7.8 93 93 S 6 9 29.96 1015 8 13 N/A
9:52 am 09:52 Mostly Cloudy 51 10.6 47 8.3 86 86 S 10 17 29.99 1016 9 14 N/A
10:52 am 10:52 Cloudy 52 11.1 47 8.3 83 83 S 8 13 29.98 1015 10 16 N/A
11:52 am 11:52 Cloudy 56 13.3 48 8.9 75 75 S 8 13 29.98 1015 10 16 N/A
12:52 pm 12:52 Cloudy 57 13.9 49 9.4 74 74 S 9 15 29.96 1015 10 16 N/A
1:52 pm 13:52 Cloudy 61 16.1 50 10 67 67 S 6 9 29.95 1014 10 16 N/A
2:52 pm 14:52 Mostly Cloudy 61 16.1 50 10 67 67 S 6 9 29.93 1014 10 16 N/A
3:52 pm 15:52 Partly Cloudy 65 18.3 51 10.6 61 61 S 7 11 29.94 1014 10 16 N/A
4:52 pm 16:52 Partly Cloudy 62 16.7 49 9.4 62 62 S 7 11 29.96 1015 10 16 N/A
5:52 pm 17:52 Mostly Cloudy 54 12.2 48 8.9 80 80 N N/A 29.99 1016 10 16 N/A
6:52 pm 18:52 Mostly Cloudy 56 13.3 49 9.4 77 77 NE 5 7 30.01 1016 10 16 N/A
7:52 pm 19:52 Mostly Cloudy 54 12.2 49 9.4 83 83 NNE 3 6 30.02 1017 9 14 N/A
8:52 pm 20:52 Mostly Cloudy 51 10.6 47 8.3 86 86 NNE 5 7 30.03 1017 10 16 N/A
9:52 pm 21:52 Mostly Cloudy 53 11.7 49 9.4 86 86 N 3 6 30.04 1017 10 16 N/A
10:52 pm 22:52 Mostly Cloudy 48 8.9 47 8.3 96 96 N N/A 30.06 1018 9 14 N/A
11:52 pm 23:52 Mostly Cloudy 50 10 47 8.3 89 89 N N/A 30.07 1018 10 16 N/A

Powered by AerisWeather